This is the latest recevied weather packets stored in our database for station/object DG4MND-4. If no packets are shown the sender has not sent any weather packets the latest 10 day(s).
| Time | Temp. | Humidity | Pressure | Rain* | Wind** | Luminosity | Snow |
|---|---|---|---|---|---|---|---|
| 1777722631 | 24.44° C | 37% | 1020.5 hPa | 0 mm | - | - | - |
| 1777722031 | 23.89° C | 36% | 1020.6 hPa | 0 mm | - | - | - |
| 1777721424 | 23.89° C | 37% | 1020.8 hPa | 0 mm | - | - | - |
| 1777720821 | 23.89° C | 35% | 1020.9 hPa | 0 mm | - | - | - |
| 1777720217 | 23.33° C | 38% | 1021.1 hPa | 0 mm | - | - | - |
| 1777719677 | 23.33° C | 37% | 1021.1 hPa | 0 mm | - | - | - |
| 1777719071 | 23.89° C | 37% | 1021.3 hPa | 0 mm | - | - | - |
| 1777718468 | 23.33° C | 38% | 1021.2 hPa | 0 mm | - | - | - |
| 1777717864 | 22.78° C | 38% | 1021.5 hPa | 0 mm | - | - | - |
| 1777717261 | 22.78° C | 38% | 1021.6 hPa | 0 mm | - | - | - |
| 1777716658 | 22.22° C | 39% | 1021.6 hPa | 0 mm | - | - | - |
| 1777716054 | 22.22° C | 37% | 1021.7 hPa | 0 mm | - | - | - |
| 1777715450 | 22.78° C | 40% | 1021.7 hPa | 0 mm | - | - | - |
| 1777714850 | 22.22° C | 38% | 1021.8 hPa | 0 mm | - | - | - |
| 1777714244 | 22.22° C | 41% | 1021.9 hPa | 0 mm | - | - | - |
| 1777713640 | 22.22° C | 41% | 1021.9 hPa | 0 mm | - | - | - |
| 1777713036 | 21.67° C | 44% | 1022 hPa | 0 mm | - | - | - |
| 1777712433 | 21.11° C | 44% | 1022.1 hPa | 0 mm | - | - | - |
| 1777711863 | 21.11° C | 45% | 1022 hPa | 0 mm | - | - | - |
| 1777711259 | 20° C | 47% | 1022.1 hPa | 0 mm | - | - | - |
| 1777710655 | 20° C | 48% | 1022 hPa | 0 mm | - | - | - |
| 1777710049 | 19.44° C | 49% | 1022 hPa | 0 mm | - | - | - |
| 1777709446 | 18.89° C | 51% | 1022 hPa | 0 mm | - | - | - |
| 1777708842 | 18.33° C | 52% | 1022.1 hPa | 0 mm | - | - | - |
| 1777708239 | 17.22° C | 53% | 1022 hPa | 0 mm | - | - | - |
* Rain latest hour (hover to see other rain measurements)
** Current wind speed in m/s (hover to see current wind gust speed)